Location: Bosdarros
(43.2167°N, 0.3667°W)
Time: 02:01:03
(UTC+00:00)

IRS-1A Rocket - Pass Details

Date: 22 April 2021
Orbit: 852 x 930 km, 99.2° (Epoch: 15 May)

Event Time Altitude Azimuth Distance (km) Brightness Sun altitude
Exits shadow 19:43:33 - 151° (SSE) 2,875 6.5 -9.4°
Reaches altitude 10° 19:44:30 10° 149° (SSE) 2,508 6.2 -9.5°
Maximum altitude 19:49:58 61° 71° (ENE) 995 4.4 -10.4°
Drops below altitude 10° 19:55:36 10° 352° (N) 2,573 7.3 -11.3°
Sets 19:58:03 0° 349° (N) 3,529 8.1 -11.7°
